| time (UTC) | temp C | wind direction | speed KPH | gust KPH | rain 1hr cm | rain 24hr cm | rain mn cm | humidity % | barometer mb |
| 20260506034647 | 18 | 26 | 14.5 | 22.5 | 0.00 | 0.33 | 0.33 | 93 | 1027.4 |
| 20260506034143 | 18 | 28 | 14.5 | 22.5 | 0.00 | 0.33 | 0.33 | 93 | 1027.4 |
| 20260506033643 | 18 | 22 | 17.7 | 25.7 | 0.00 | 0.33 | 0.33 | 93 | 1027.4 |
| 20260506033140 | 19 | 27 | 17.7 | 25.7 | 0.00 | 0.33 | 0.33 | 92 | 1027.5 |
| 20260506032636 | 19 | 57 | 9.7 | 22.5 | 0.00 | 0.33 | 0.33 | 92 | 1027.5 |
| 20260506032137 | 20 | 61 | 11.3 | 19.3 | 0.00 | 0.33 | 0.33 | 93 | 1027.4 |
| 20260506031902 | 20 | 52 | 9.7 | 25.7 | 0.00 | 0.33 | 0.33 | 93 | 1027.4 |
| 20260506031407 | 19 | 34 | 16.1 | 25.7 | 0.00 | 0.33 | 0.33 | 93 | 1027.5 |
| 20260506030627 | 20 | 42 | 9.7 | 24.1 | 0.00 | 0.33 | 0.33 | 93 | 1027.4 |
| 20260506030123 | 19 | 36 | 14.5 | 24.1 | 0.00 | 0.36 | 0.33 | 93 | 1027.4 |
| 20260506025624 | 20 | 51 | 11.3 | 20.9 | 0.00 | 0.36 | 0.33 | 93 | 1027.5 |
| 20260506025124 | 20 | 58 | 14.5 | 24.1 | 0.00 | 0.36 | 0.33 | 92 | 1027.5 |
| 20260506024623 | 20 | 66 | 12.9 | 24.1 | 0.00 | 0.36 | 0.33 | 92 | 1027.6 |
| 20260506024402 | 20 | 54 | 8.0 | 22.5 | 0.00 | 0.36 | 0.33 | 93 | 1027.5 |
| 20260506023619 | 20 | 31 | 12.9 | 19.3 | 0.00 | 0.36 | 0.33 | 92 | 1027.5 |
| 20260506023117 | 20 | 46 | 12.9 | 19.3 | 0.00 | 0.36 | 0.33 | 92 | 1027.6 |
| 20260506022611 | 20 | 44 | 9.7 | 24.1 | 0.00 | 0.36 | 0.33 | 92 | 1027.6 |
| 20260506022107 | 20 | 59 | 9.7 | 25.7 | 0.00 | 0.36 | 0.33 | 93 | 1027.6 |
| 20260506021608 | 20 | 44 | 14.5 | 25.7 | 0.00 | 0.36 | 0.33 | 93 | 1027.6 |
| 20260506021107 | 20 | 35 | 8.0 | 20.9 | 0.00 | 0.36 | 0.33 | 93 | 1027.6 |
| 20260506020558 | 20 | 83 | 12.9 | 25.7 | 0.00 | 0.36 | 0.33 | 93 | 1027.6 |
| 20260506020054 | 20 | 102 | 12.9 | 25.7 | 0.00 | 0.36 | 0.33 | 94 | 1027.6 |
| 20260506015551 | 20 | 51 | 9.7 | 20.9 | 0.00 | 0.36 | 0.33 | 93 | 1027.6 |
| 20260506015049 | 19 | 26 | 14.5 | 19.3 | 0.00 | 0.36 | 0.33 | 94 | 1027.7 |
| 20260506014540 | 19 | 37 | 9.7 | 20.9 | 0.00 | 0.36 | 0.33 | 94 | 1027.7 |
| 20260506014052 | 19 | 54 | 12.9 | 22.5 | 0.00 | 0.36 | 0.33 | 94 | 1027.8 |
| 20260506014042 | 19 | 50 | 14.5 | 22.5 | 0.00 | 0.36 | 0.33 | 94 | 1027.8 |
| 20260506013040 | 19 | 36 | 17.7 | 22.5 | 0.00 | 0.36 | 0.33 | 93 | 1027.9 |
| 20260506012534 | 19 | 27 | 9.7 | 25.7 | 0.00 | 0.36 | 0.33 | 94 | 1027.9 |
| 20260506012030 | 20 | 31 | 17.7 | 25.7 | 0.00 | 0.36 | 0.33 | 94 | 1027.9 |
| 20260506011527 | 19 | 76 | 9.7 | 22.5 | 0.00 | 0.36 | 0.33 | 94 | 1027.8 |
| 20260506011022 | 19 | 30 | 11.3 | 20.9 | 0.00 | 0.36 | 0.33 | 94 | 1027.8 |
| 20260506010517 | 19 | 59 | 12.9 | 20.9 | 0.00 | 0.36 | 0.33 | 94 | 1027.8 |
| 20260506010015 | 19 | 27 | 11.3 | 24.1 | 0.00 | 0.36 | 0.33 | 94 | 1027.9 |
| 20260506005748 | 19 | 23 | 12.9 | 24.1 | 0.00 | 0.36 | 0.33 | 94 | 1027.9 |
| 20260506005244 | 19 | 59 | 12.9 | 24.1 | 0.00 | 0.36 | 0.33 | 94 | 1028.0 |
| 20260506004506 | 19 | 20 | 17.7 | 25.7 | 0.00 | 0.36 | 0.33 | 94 | 1028.1 |
| 20260506004239 | 19 | 38 | 19.3 | 25.7 | 0.00 | 0.36 | 0.33 | 94 | 1028.1 |
| 20260506003458 | 19 | 31 | 17.7 | 25.7 | 0.00 | 0.36 | 0.33 | 94 | 1028.2 |
| 20260506002959 | 19 | 28 | 19.3 | 24.1 | 0.00 | 0.36 | 0.33 | 94 | 1028.2 |
| 20260506002454 | 19 | 34 | 17.7 | 24.1 | 0.00 | 0.36 | 0.33 | 94 | 1028.3 |
| 20260506001950 | 19 | 35 | 12.9 | 19.3 | 0.00 | 0.36 | 0.33 | 94 | 1028.4 |
| 20260506001451 | 19 | 42 | 12.9 | 19.3 | 0.00 | 0.36 | 0.33 | 94 | 1028.5 |
| 20260506000946 | 18 | 38 | 12.9 | 24.1 | 0.00 | 0.36 | 0.33 | 94 | 1028.7 |
| 20260506000446 | 18 | 40 | 12.9 | 24.1 | 0.00 | 0.36 | 0.33 | 94 | 1028.8 |
| 20260505235948 | 18 | 49 | 11.3 | 20.9 | 0.00 | 0.36 | 0.33 | 94 | 1028.7 |
| 20260505235443 | 18 | 53 | 8.0 | 20.9 | 0.03 | 0.36 | 0.33 | 94 | 1028.8 |
| 20260505235218 | 18 | 45 | 9.7 | 20.9 | 0.05 | 0.36 | 0.33 | 95 | 1028.9 |
| 20260505234442 | 18 | 26 | 6.4 | 17.7 | 0.05 | 0.36 | 0.33 | 96 | 1028.9 |
| 20260505234216 | 18 | 57 | 9.7 | 17.7 | 0.08 | 0.36 | 0.33 | 96 | 1028.9 |
| 20260505233442 | 18 | 34 | 8.0 | 16.1 | 0.08 | 0.36 | 0.33 | 96 | 1028.9 |
| 20260505232936 | 17 | 34 | 9.7 | 16.1 | 0.08 | 0.36 | 0.33 | 97 | 1028.8 |
| 20260505232436 | 17 | 44 | 6.4 | 14.5 | 0.08 | 0.36 | 0.33 | 97 | 1028.9 |
| 20260505231929 | 17 | 47 | 6.4 | 14.5 | 0.08 | 0.36 | 0.33 | 98 | 1029.0 |
| 20260505231425 | 17 | 43 | 4.8 | 12.9 | 0.08 | 0.36 | 0.33 | 97 | 1029.1 |
| 20260505230925 | 16 | 61 | 4.8 | 17.7 | 0.08 | 0.36 | 0.33 | 97 | 1029.1 |
| 20260505230421 | 16 | 67 | 6.4 | 20.9 | 0.08 | 0.36 | 0.33 | 97 | 1029.2 |
| 20260505230152 | 16 | 26 | 9.7 | 20.9 | 0.05 | 0.33 | 0.33 | 97 | 1029.4 |
| 20260505225421 | 16 | 17 | 14.5 | 20.9 | 0.05 | 0.33 | 0.33 | 97 | 1029.4 |
| 20260505224913 | 17 | 24 | 12.9 | 19.3 | 0.05 | 0.33 | 0.30 | 96 | 1029.5 |
| 20260505224413 | 17 | 17 | 12.9 | 19.3 | 0.00 | 0.28 | 0.25 | 95 | 1029.6 |
| 20260505223910 | 18 | 17 | 14.5 | 17.7 | 0.00 | 0.28 | 0.25 | 94 | 1029.6 |
| 20260505223405 | 18 | 106 | 4.8 | 14.5 | 0.00 | 0.28 | 0.25 | 94 | 1029.5 |
| 20260505223140 | 18 | 113 | 8.0 | 14.5 | 0.00 | 0.28 | 0.25 | 93 | 1029.4 |
| 20260505222404 | 18 | 115 | 4.8 | 11.3 | 0.00 | 0.28 | 0.25 | 93 | 1029.4 |
| 20260505221901 | 18 | 32 | 6.4 | 11.3 | 0.00 | 0.28 | 0.25 | 94 | 1029.5 |
| 20260505221403 | 18 | 19 | 6.4 | 9.7 | 0.00 | 0.28 | 0.25 | 95 | 1029.5 |
| 20260505220900 | 17 | 38 | 4.8 | 9.7 | 0.00 | 0.28 | 0.25 | 95 | 1029.5 |
| 20260505220409 | 17 | 46 | 9.7 | 14.5 | 0.00 | 0.28 | 0.25 | 96 | 1029.6 |
| 20260505220402 | 17 | 36 | 6.4 | 14.5 | 0.00 | 0.28 | 0.25 | 96 | 1029.6 |
| 20260505215352 | 17 | 50 | 4.8 | 14.5 | 0.00 | 0.28 | 0.25 | 97 | 1029.6 |
| 20260505214852 | 17 | 59 | 6.4 | 14.5 | 0.00 | 0.28 | 0.25 | 98 | 1029.7 |
| 20260505214352 | 16 | 58 | 8.0 | 14.5 | 0.00 | 0.28 | 0.25 | 98 | 1029.6 |
| 20260505213848 | 17 | 22 | 6.4 | 12.9 | 0.00 | 0.28 | 0.25 | 98 | 1029.6 |
| 20260505213348 | 17 | 77 | 3.2 | 12.9 | 0.00 | 0.28 | 0.25 | 99 | 1029.6 |
| 20260505212848 | 17 | 53 | 6.4 | 12.9 | 0.00 | 0.28 | 0.25 | 98 | 1029.6 |
| 20260505212343 | 17 | 53 | 6.4 | 12.9 | 0.00 | 0.28 | 0.25 | 98 | 1029.6 |
| 20260505211846 | 17 | 110 | 3.2 | 9.7 | 0.00 | 0.28 | 0.25 | 98 | 1029.7 |
| 20260505211340 | 17 | 100 | 4.8 | 11.3 | 0.00 | 0.28 | 0.25 | 98 | 1029.7 |
| 20260505210837 | 17 | 101 | 3.2 | 14.5 | 0.00 | 0.28 | 0.25 | 99 | 1029.8 |
| 20260505210342 | 17 | 126 | 6.4 | 14.5 | 0.00 | 0.28 | 0.25 | 99 | 1029.7 |
| 20260505205834 | 17 | 83 | 4.8 | 12.9 | 0.00 | 0.28 | 0.25 | 99 | 1029.6 |
| 20260505205330 | 16 | 107 | 6.4 | 14.5 | 0.00 | 0.28 | 0.25 | 99 | 1029.6 |
| 20260505204831 | 16 | 116 | 6.4 | 17.7 | 0.00 | 0.28 | 0.25 | 99 | 1029.4 |
| 20260505204601 | 16 | 78 | 4.8 | 17.7 | 0.00 | 0.28 | 0.25 | 99 | 1029.5 |
| 20260505203825 | 17 | 100 | 6.4 | 14.5 | 0.00 | 0.28 | 0.25 | 99 | 1029.5 |
| 20260505203322 | 17 | 113 | 6.4 | 11.3 | 0.00 | 0.28 | 0.25 | 99 | 1029.4 |
| 20260505202820 | 17 | 119 | 6.4 | 14.5 | 0.00 | 0.28 | 0.25 | 99 | 1029.4 |
| 20260505202319 | 17 | 94 | 6.4 | 14.5 | 0.00 | 0.28 | 0.25 | 99 | 1029.4 |
| 20260505201819 | 17 | 114 | 4.8 | 14.5 | 0.00 | 0.28 | 0.25 | 99 | 1029.4 |
| 20260505201319 | 17 | 59 | 4.8 | 11.3 | 0.00 | 0.28 | 0.25 | 99 | 1029.4 |
| 20260505200812 | 16 | 126 | 4.8 | 11.3 | 0.00 | 0.28 | 0.25 | 99 | 1029.2 |
| 20260505200308 | 16 | 121 | 4.8 | 11.3 | 0.00 | 0.28 | 0.25 | 99 | 1029.2 |
| 20260505195803 | 16 | 113 | 4.8 | 9.7 | 0.00 | 0.28 | 0.25 | 99 | 1029.2 |
| 20260505195305 | 16 | 126 | 3.2 | 6.4 | 0.03 | 0.28 | 0.25 | 99 | 1029.2 |
| 20260505194802 | 16 | 94 | 1.6 | 6.4 | 0.05 | 0.28 | 0.25 | 99 | 1029.2 |
| 20260505194037 | 16 | 75 | 1.6 | 6.4 | 0.15 | 0.28 | 0.25 | 99 | 1029.1 |
| 20260505193533 | 16 | 95 | 1.6 | 4.8 | 0.15 | 0.28 | 0.25 | 99 | 1029.1 |
| 20260505193025 | 16 | 37 | 1.6 | 3.2 | 0.15 | 0.28 | 0.25 | 99 | 1029.2 |
| 20260505192250 | 16 | 37 | 1.6 | 3.2 | 0.18 | 0.28 | 0.25 | 99 | 1029.2 |
| 20260505192024 | 16 | 37 | 1.6 | 3.2 | 0.20 | 0.28 | 0.25 | 99 | 1029.2 |
| 20260505191243 | 16 | 37 | 0.0 | 3.2 | 0.23 | 0.28 | 0.25 | 99 | 1029.2 |
| 20260505190722 | 16 | 37 | 1.6 | 3.2 | 0.25 | 0.28 | 0.25 | 99 | 1029.1 |
| 20260505190223 | 16 | 37 | 1.6 | 4.8 | 0.25 | 0.28 | 0.25 | 99 | 1029.0 |
| 20260505185955 | 16 | 32 | 1.6 | 6.4 | 0.25 | 0.28 | 0.25 | 99 | 1029.0 |
| 20260505185224 | 16 | 147 | 3.2 | 6.4 | 0.23 | 0.25 | 0.23 | 99 | 1029.0 |
| 20260505184718 | 15 | 155 | 1.6 | 3.2 | 0.20 | 0.23 | 0.20 | 99 | 1029.1 |
| 20260505184445 | 15 | 155 | 1.6 | 1.6 | 0.15 | 0.18 | 0.15 | 99 | 1029.0 |
| 20260505183936 | 15 | 155 | 0.0 | 1.6 | 0.13 | 0.15 | 0.13 | 99 | 1029.0 |
| 20260505183200 | 15 | 155 | 0.0 | 1.6 | 0.13 | 0.15 | 0.13 | 99 | 1029.0 |
| 20260505182655 | 15 | 155 | 0.0 | 3.2 | 0.10 | 0.13 | 0.10 | 100 | 1028.9 |
| 20260505182427 | 15 | 155 | 1.6 | 3.2 | 0.08 | 0.10 | 0.08 | 99 | 1028.9 |
| 20260505181647 | 14 | 155 | 0.0 | 3.2 | 0.05 | 0.08 | 0.05 | 99 | 1028.9 |
| 20260505181147 | 14 | 118 | 1.6 | 3.2 | 0.03 | 0.05 | 0.03 | 99 | 1028.9 |
| 20260505180645 | 15 | 118 | 0.0 | 3.2 | 0.00 | 0.03 | 0.00 | 99 | 1028.8 |
| 20260505180140 | 15 | 118 | 1.6 | 3.2 | 0.00 | 0.03 | 0.00 | 99 | 1028.8 |
| 20260505175629 | 14 | 118 | 0.0 | 3.2 | 0.00 | 0.03 | 0.00 | 98 | 1028.8 |
| 20260505175126 | 15 | 118 | 0.0 | 1.6 | 0.00 | 0.03 | 0.00 | 99 | 1028.8 |
| 20260505174626 | 15 | 118 | 0.0 | 3.2 | 0.00 | 0.03 | 0.00 | 99 | 1028.8 |
| 20260505174105 | 14 | 118 | 0.0 | 3.2 | 0.00 | 0.03 | 0.00 | 99 | 1028.8 |
| 20260505173603 | 14 | 118 | 0.0 | 1.6 | 0.00 | 0.03 | 0.00 | 98 | 1028.8 |
| 20260505173059 | 14 | 118 | 0.0 | 1.6 | 0.00 | 0.03 | 0.00 | 98 | 1028.9 |
| 20260505172600 | 15 | 118 | 0.0 | 1.6 | 0.00 | 0.03 | 0.00 | 98 | 1028.8 |
| 20260505172054 | 15 | 118 | 0.0 | 1.6 | 0.00 | 0.03 | 0.00 | 98 | 1028.9 |
| 20260505172049 | 15 | 118 | 0.0 | 1.6 | 0.00 | 0.03 | 0.00 | 98 | 1028.8 |
| 20260505171043 | 15 | 118 | 0.0 | 1.6 | 0.00 | 0.03 | 0.00 | 98 | 1028.9 |
| 20260505170521 | 15 | 118 | 0.0 | 3.2 | 0.00 | 0.03 | 0.00 | 98 | 1029.0 |
| 20260505170017 | 15 | 118 | 0.0 | 4.8 | 0.00 | 0.03 | 0.00 | 98 | 1028.9 |
| 20260505165518 | 15 | 118 | 1.6 | 4.8 | 0.00 | 0.03 | 0.00 | 97 | 1028.9 |
| 20260505165015 | 15 | 60 | 1.6 | 3.2 | 0.00 | 0.03 | 0.00 | 97 | 1028.9 |
| 20260505164509 | 15 | 60 | 1.6 | 3.2 | 0.00 | 0.03 | 0.00 | 97 | 1028.9 |
| 20260505164013 | 15 | 60 | 0.0 | 3.2 | 0.00 | 0.03 | 0.00 | 97 | 1028.9 |
| 20260505163457 | 15 | 60 | 1.6 | 3.2 | 0.00 | 0.03 | 0.00 | 97 | 1029.0 |
| 20260505162950 | 16 | 60 | 1.6 | 3.2 | 0.00 | 0.03 | 0.00 | 97 | 1028.9 |
| 20260505162446 | 16 | 60 | 1.6 | 3.2 | 0.00 | 0.03 | 0.00 | 97 | 1029.0 |
| 20260505161937 | 16 | 60 | 0.0 | 3.2 | 0.00 | 0.03 | 0.00 | 97 | 1029.0 |
| 20260505161429 | 16 | 60 | 0.0 | 3.2 | 0.00 | 0.03 | 0.00 | 97 | 1029.0 |
| 20260505161154 | 16 | 60 | 1.6 | 6.4 | 0.00 | 0.03 | 0.00 | 97 | 1028.9 |
| 20260505160646 | 16 | 60 | 3.2 | 6.4 | 0.00 | 0.03 | 0.00 | 97 | 1029.0 |
| 20260505153348 | 16 | 94 | 1.6 | 6.4 | 0.00 | 0.03 | 0.00 | 97 | 1029.0 |
| 20260505152848 | 16 | 69 | 1.6 | 6.4 | 0.00 | 0.03 | 0.00 | 97 | 1029.0 |
| 20260505152343 | 16 | 115 | 3.2 | 4.8 | 0.00 | 0.03 | 0.00 | 97 | 1029.0 |
| 20260505152119 | 16 | 86 | 1.6 | 6.4 | 0.00 | 0.03 | 0.00 | 97 | 1029.1 |
| 20260505151336 | 16 | 98 | 1.6 | 6.4 | 0.00 | 0.03 | 0.00 | 97 | 1029.2 |
| 20260505150832 | 16 | 113 | 3.2 | 6.4 | 0.00 | 0.03 | 0.00 | 97 | 1029.2 |
| 20260505150331 | 16 | 96 | 1.6 | 4.8 | 0.00 | 0.03 | 0.00 | 97 | 1029.2 |
| 20260505130209 | 16 | 69 | 3.2 | 6.4 | 0.00 | 0.03 | 0.00 | 97 | 1030.5 |
| 20260505124657 | 16 | 93 | 1.6 | 6.4 | 0.00 | 0.03 | 0.00 | 96 | 1030.5 |
| 20260505124424 | 16 | 82 | 1.6 | 4.8 | 0.00 | 0.03 | 0.00 | 96 | 1030.5 |
| 20260505124143 | 16 | 109 | 1.6 | 4.8 | 0.00 | 0.03 | 0.00 | 96 | 1030.6 |
| 20260505123139 | 16 | 78 | 3.2 | 4.8 | 0.00 | 0.03 | 0.00 | 96 | 1030.5 |
| 20260505122629 | 16 | 53 | 1.6 | 4.8 | 0.00 | 0.03 | 0.00 | 96 | 1030.6 |
| 20260505122124 | 16 | 91 | 1.6 | 4.8 | 0.00 | 0.03 | 0.00 | 96 | 1030.7 |
| 20260505121624 | 16 | 70 | 1.6 | 4.8 | 0.00 | 0.03 | 0.00 | 97 | 1030.7 |
| 20260505121349 | 16 | 93 | 1.6 | 4.8 | 0.00 | 0.03 | 0.00 | 97 | 1030.7 |
| 20260505120613 | 16 | 101 | 1.6 | 6.4 | 0.00 | 0.03 | 0.00 | 97 | 1030.7 |
| 20260505120105 | 16 | 64 | 3.2 | 6.4 | 0.00 | 0.03 | 0.00 | 97 | 1030.8 |
| 20260505115600 | 16 | 56 | 1.6 | 6.4 | 0.00 | 0.03 | 0.03 | 97 | 1030.7 |
| 20260505115100 | 16 | 57 | 1.6 | 9.7 | 0.00 | 0.03 | 0.03 | 97 | 1030.7 |
| 20260505114820 | 16 | 92 | 3.2 | 11.3 | 0.00 | 0.03 | 0.03 | 97 | 1030.6 |
| 20260505114048 | 16 | 109 | 3.2 | 11.3 | 0.00 | 0.03 | 0.03 | 97 | 1030.7 |
| 20260505113540 | 16 | 101 | 1.6 | 9.7 | 0.00 | 0.03 | 0.03 | 97 | 1030.7 |
| 20260505113038 | 16 | 115 | 1.6 | 11.3 | 0.00 | 0.03 | 0.03 | 97 | 1030.7 |
| 20260505112537 | 16 | 112 | 4.8 | 12.9 | 0.00 | 0.03 | 0.03 | 97 | 1030.7 |
| 20260505112034 | 16 | 101 | 3.2 | 14.5 | 0.00 | 0.03 | 0.03 | 97 | 1030.7 |
| 20260505111529 | 16 | 123 | 3.2 | 14.5 | 0.00 | 0.03 | 0.03 | 97 | 1030.8 |
| 20260505111029 | 16 | 58 | 3.2 | 11.3 | 0.00 | 0.03 | 0.03 | 97 | 1030.8 |
| 20260505110533 | 16 | 106 | 3.2 | 11.3 | 0.00 | 0.03 | 0.03 | 97 | 1030.8 |
| 20260505102006 | 16 | 89 | 1.6 | 8.0 | 0.00 | 0.03 | 0.03 | 98 | 1031.3 |
| 20260505101506 | 16 | 74 | 3.2 | 8.0 | 0.00 | 0.03 | 0.03 | 98 | 1031.3 |
| 20260505101007 | 16 | 64 | 3.2 | 8.0 | 0.00 | 0.03 | 0.03 | 98 | 1031.3 |
| 20260505100508 | 15 | 40 | 3.2 | 6.4 | 0.00 | 0.03 | 0.03 | 98 | 1031.4 |
| 20260505100007 | 15 | 103 | 1.6 | 4.8 | 0.00 | 0.03 | 0.03 | 98 | 1031.3 |
| 20260505095516 | 15 | 107 | 1.6 | 4.8 | 0.00 | 0.03 | 0.03 | 98 | 1031.2 |
| 20260505095508 | 15 | 107 | 0.0 | 4.8 | 0.00 | 0.03 | 0.03 | 98 | 1031.3 |
| 20260505094457 | 15 | 89 | 1.6 | 3.2 | 0.00 | 0.03 | 0.03 | 98 | 1031.2 |
| 20260505093950 | 15 | 89 | 0.0 | 3.2 | 0.00 | 0.03 | 0.03 | 98 | 1031.2 |
| 20260505093441 | 15 | 89 | 0.0 | 1.6 | 0.00 | 0.03 | 0.03 | 98 | 1031.2 |
| 20260505092943 | 15 | 89 | 0.0 | 1.6 | 0.00 | 0.03 | 0.03 | 98 | 1031.3 |
| 20260505092440 | 15 | 89 | 0.0 | 3.2 | 0.00 | 0.03 | 0.03 | 98 | 1031.3 |
| 20260505091940 | 15 | 89 | 1.6 | 3.2 | 0.00 | 0.03 | 0.03 | 98 | 1031.2 |
| 20260505091436 | 15 | 89 | 0.0 | 3.2 | 0.00 | 0.03 | 0.03 | 98 | 1031.2 |
| 20260505091158 | 15 | 89 | 0.0 | 6.4 | 0.00 | 0.03 | 0.03 | 98 | 1031.2 |
| 20260505090430 | 15 | 89 | 1.6 | 6.4 | 0.00 | 0.03 | 0.03 | 97 | 1031.2 |
| 20260505085923 | 15 | 45 | 0.0 | 3.2 | 0.00 | 0.03 | 0.03 | 97 | 1031.1 |
| 20260505085413 | 15 | 45 | 0.0 | 3.2 | 0.00 | 0.03 | 0.03 | 97 | 1031.1 |
| 20260505084903 | 15 | 45 | 1.6 | 3.2 | 0.00 | 0.03 | 0.03 | 97 | 1031.1 |
| 20260505084359 | 15 | 76 | 1.6 | 3.2 | 0.00 | 0.03 | 0.03 | 97 | 1031.1 |
| 20260505083859 | 15 | 92 | 1.6 | 4.8 | 0.00 | 0.03 | 0.03 | 97 | 1031.0 |
| 20260505083355 | 15 | 91 | 1.6 | 6.4 | 0.00 | 0.03 | 0.03 | 97 | 1031.0 |
| 20260505082857 | 15 | 75 | 1.6 | 6.4 | 0.00 | 0.03 | 0.03 | 97 | 1031.0 |
| 20260505082354 | 15 | 44 | 1.6 | 8.0 | 0.00 | 0.03 | 0.03 | 97 | 1031.0 |
| 20260505081846 | 15 | 64 | 3.2 | 8.0 | 0.00 | 0.03 | 0.03 | 97 | 1031.0 |
| 20260505081336 | 15 | 90 | 1.6 | 11.3 | 0.00 | 0.03 | 0.03 | 97 | 1031.1 |
| 20260505080827 | 15 | 55 | 1.6 | 11.3 | 0.00 | 0.03 | 0.03 | 97 | 1031.0 |
| 20260505080322 | 15 | 41 | 1.6 | 6.4 | 0.00 | 0.03 | 0.03 | 97 | 1031.1 |
| 20260505080105 | 16 | 57 | 3.2 | 11.3 | 0.00 | 0.03 | 0.03 | 96 | 1031.1 |
| 20260505075319 | 16 | 55 | 4.8 | 11.3 | 0.00 | 0.03 | 0.03 | 97 | 1031.0 |
| 20260505074813 | 16 | 36 | 4.8 | 11.3 | 0.00 | 0.03 | 0.03 | 97 | 1031.0 |
| 20260505074312 | 16 | 79 | 3.2 | 14.5 | 0.00 | 0.03 | 0.03 | 96 | 1030.9 |
| 20260505073815 | 16 | 53 | 6.4 | 14.5 | 0.00 | 0.03 | 0.03 | 96 | 1031.0 |
| 20260505072806 | 16 | 33 | 6.4 | 9.7 | 0.00 | 0.03 | 0.03 | 96 | 1030.9 |
| 20260505072302 | 16 | 40 | 4.8 | 9.7 | 0.00 | 0.03 | 0.03 | 96 | 1030.8 |
| 20260505071758 | 16 | 115 | 6.4 | 11.3 | 0.00 | 0.03 | 0.03 | 96 | 1030.8 |
| 20260505071254 | 16 | 98 | 6.4 | 12.9 | 0.00 | 0.03 | 0.03 | 96 | 1030.8 |
| 20260505070749 | 16 | 98 | 6.4 | 12.9 | 0.00 | 0.03 | 0.03 | 96 | 1030.6 |
| 20260505070246 | 16 | 88 | 4.8 | 11.3 | 0.00 | 0.03 | 0.03 | 96 | 1030.6 |
| 20260505065741 | 16 | 89 | 6.4 | 14.5 | 0.00 | 0.03 | 0.03 | 96 | 1030.7 |
| 20260505065238 | 16 | 94 | 6.4 | 14.5 | 0.00 | 0.03 | 0.03 | 96 | 1030.7 |
| 20260505064738 | 16 | 99 | 4.8 | 14.5 | 0.00 | 0.03 | 0.03 | 96 | 1030.7 |
| 20260505064237 | 15 | 129 | 6.4 | 14.5 | 0.00 | 0.03 | 0.03 | 96 | 1030.6 |
| 20260505063738 | 15 | 90 | 6.4 | 12.9 | 0.00 | 0.03 | 0.03 | 97 | 1030.5 |
| 20260505063234 | 15 | 54 | 6.4 | 11.3 | 0.00 | 0.03 | 0.03 | 97 | 1030.5 |
| 20260505063003 | 15 | 99 | 4.8 | 11.3 | 0.00 | 0.03 | 0.03 | 96 | 1030.5 |
| 20260505062510 | 16 | 82 | 3.2 | 9.7 | 0.00 | 0.03 | 0.03 | 96 | 1030.5 |
| 20260505062227 | 16 | 112 | 4.8 | 9.7 | 0.00 | 0.03 | 0.03 | 96 | 1030.4 |
| 20260505061219 | 16 | 105 | 4.8 | 12.9 | 0.00 | 0.03 | 0.03 | 96 | 1030.5 |
| 20260505060723 | 16 | 98 | 6.4 | 12.9 | 0.00 | 0.03 | 0.03 | 96 | 1030.5 |
| 20260505060219 | 16 | 88 | 3.2 | 11.3 | 0.00 | 0.03 | 0.03 | 96 | 1030.5 |
| 20260505055717 | 16 | 63 | 4.8 | 11.3 | 0.00 | 0.03 | 0.03 | 96 | 1030.5 |
| 20260505055212 | 16 | 106 | 4.8 | 9.7 | 0.00 | 0.03 | 0.03 | 96 | 1030.5 |
| 20260505054710 | 16 | 93 | 3.2 | 11.3 | 0.00 | 0.03 | 0.03 | 96 | 1030.5 |
| 20260505054441 | 16 | 95 | 6.4 | 14.5 | 0.00 | 0.03 | 0.03 | 95 | 1030.5 |
| 20260505053701 | 16 | 97 | 3.2 | 14.5 | 0.00 | 0.03 | 0.03 | 95 | 1030.5 |
| 20260505053201 | 16 | 90 | 3.2 | 12.9 | 0.00 | 0.03 | 0.03 | 95 | 1030.5 |
| 20260505052702 | 16 | 92 | 1.6 | 8.0 | 0.00 | 0.03 | 0.03 | 95 | 1030.5 |
| 20260505052157 | 16 | 46 | 4.8 | 12.9 | 0.00 | 0.03 | 0.03 | 95 | 1030.7 |
| 20260505051658 | 16 | 92 | 6.4 | 14.5 | 0.00 | 0.03 | 0.03 | 95 | 1030.7 |
| 20260505051155 | 16 | 88 | 4.8 | 16.1 | 0.00 | 0.03 | 0.03 | 94 | 1030.8 |
| 20260505050924 | 16 | 102 | 6.4 | 16.1 | 0.00 | 0.03 | 0.03 | 94 | 1030.8 |
| 20260505050150 | 16 | 125 | 4.8 | 16.1 | 0.00 | 0.03 | 0.03 | 94 | 1030.9 |
| 20260505041627 | 16 | 86 | 6.4 | 14.5 | 0.00 | 0.03 | 0.03 | 95 | 1030.8 |
| 20260505041123 | 16 | 74 | 6.4 | 14.5 | 0.00 | 0.03 | 0.03 | 95 | 1030.8 |
| 20260505040621 | 16 | 48 | 6.4 | 17.7 | 0.00 | 0.03 | 0.03 | 96 | 1030.9 |
| 20260505040402 | 16 | 231 | 4.8 | 17.7 | 0.03 | 0.03 | 0.03 | 96 | 1030.9 |
| 20260505040357 | 16 | 98 | 9.7 | 17.7 | 0.03 | 0.03 | 0.03 | 95 | 1030.8 |
| 20260505035110 | 16 | 101 | 4.8 | 16.1 | 0.03 | 0.03 | 0.03 | 96 | 1030.8 |